sat.trackr.live / text

‹ back to catalog

CINEMA

NORAD 38764 · 2012-048G

PAYLOAD ACTIVE UNKNOWN

§ Identity

Operator
Country
US
Launch date
2012-09-13
Launch site
AFWTR
Launch vehicle
Mass (kg)
RCS (m²)

External: N2YO · Heavens-Above · Gunter

§ Orbital elements

Epoch: 2026-05-25T03:06:29.332224Z

Period
93.11 min
Inclination
64.6422°
Eccentricity
0.0046690
Mean motion
15.46590254 rev/d
Perigee alt
394.9 km
Apogee alt
458.5 km
Semi-major
6,804.8 km
B*
4.9442e-4
RAAN
163.7815°
Arg perigee
184.2439°
Mean anomaly
175.8310°
Rev number
11,367

§ Raw data

CINEMA1 38764U 12048G   26145.12950616  .00025645  00000+0  49442-3 0  99982 38764  64.6422 163.7815 0046690 184.2439 175.8310 15.46590254113675

JSON: /api/v1/satellites/38764 · /tle

For live sub-satellite position, see the globe view (requires WebGL).

§ Visibility from observer

Set your observer location to see the next 7 days of passes ≥ 10°. The values pass through the URL so the page stays shareable.

No JS? Fill the form by hand. The geolocation button needs JavaScript.